Time,TemperatureF,DewpointF,PressureIn,WindDirection,WindDirectionDegrees,WindSpeedMPH,WindSpeedGustMPH,Humidity,HourlyPrecipIn,Conditions,Clouds,dailyrainin,SolarRadiationWatts/m^2,SoftwareType,DateUTC
2013-04-26 00:01:00,55.0,23.0,-100.00,East,100,3.0,8.0,29,0.00,,,0.05,75.000000,,2013-04-26 00:01:00,
2013-04-26 00:11:00,51.0,23.0,-100.00,East,83,2.0,8.0,33,0.00,,,0.02,42.000000,,2013-04-26 00:11:00,
2013-04-26 00:32:00,51.0,23.0,-100.00,East,83,2.0,8.0,33,0.00,,,0.02,42.000000,,2013-04-26 00:32:00,
2013-04-26 00:42:00,51.0,23.0,-100.00,East,83,2.0,8.0,33,0.00,,,0.02,42.000000,,2013-04-26 00:42:00,
2013-04-26 00:52:00,51.0,23.0,-100.00,East,83,2.0,8.0,33,0.00,,,0.02,42.000000,,2013-04-26 00:52:00,
2013-04-26 01:01:00,51.0,23.0,-100.00,East,83,2.0,8.0,33,0.00,,,0.02,42.000000,,2013-04-26 01:01:00,
2013-04-26 01:11:00,48.0,22.0,-100.00,North,358,2.0,5.0,35,0.00,,,0.01,1.000000,,2013-04-26 01:11:00,
2013-04-26 01:32:00,48.0,22.0,-100.00,North,358,2.0,5.0,35,0.00,,,0.01,1.000000,,2013-04-26 01:32:00,
2013-04-26 01:42:00,48.0,22.0,-100.00,North,358,2.0,5.0,35,0.00,,,0.01,1.000000,,2013-04-26 01:42:00,
2013-04-26 01:52:00,48.0,22.0,-100.00,North,358,2.0,5.0,35,0.00,,,0.01,1.000000,,2013-04-26 01:52:00,
2013-04-26 02:02:00,48.0,22.0,-100.00,North,358,2.0,5.0,35,0.00,,,0.01,1.000000,,2013-04-26 02:02:00,
2013-04-26 02:11:00,44.0,23.0,-100.00,NW,311,0.0,0.0,43,0.00,,,0.01,0.000000,,2013-04-26 02:11:00,
2013-04-26 02:32:00,44.0,23.0,-100.00,NW,311,0.0,0.0,43,0.00,,,0.01,0.000000,,2013-04-26 02:32:00,
2013-04-26 02:42:00,44.0,23.0,-100.00,NW,311,0.0,0.0,43,0.00,,,0.01,0.000000,,2013-04-26 02:42:00,
2013-04-26 02:52:00,44.0,23.0,-100.00,NW,311,0.0,0.0,43,0.00,,,0.01,0.000000,,2013-04-26 02:52:00,
2013-04-26 03:01:00,44.0,23.0,-100.00,NW,311,0.0,0.0,43,0.00,,,0.01,0.000000,,2013-04-26 03:01:00,
2013-04-26 03:11:00,41.0,25.0,-100.00,NNW,332,1.0,3.0,53,0.00,,,0.01,0.000000,,2013-04-26 03:11:00,
2013-04-26 03:43:00,41.0,25.0,-100.00,NNW,332,1.0,3.0,53,0.00,,,0.01,0.000000,,2013-04-26 03:43:00,
2013-04-26 03:53:00,41.0,25.0,-100.00,NNW,332,1.0,3.0,53,0.00,,,0.01,0.000000,,2013-04-26 03:53:00,
2013-04-26 04:03:00,41.0,25.0,-100.00,NNW,332,1.0,3.0,53,0.00,,,0.01,0.000000,,2013-04-26 04:03:00,
2013-04-26 04:11:00,43.0,27.0,-100.00,East,90,2.0,3.0,52,0.00,,,0.00,0.000000,,2013-04-26 04:11:00,
2013-04-26 04:33:00,43.0,27.0,-100.00,East,90,2.0,3.0,52,0.00,,,0.00,0.000000,,2013-04-26 04:33:00,
2013-04-26 04:43:00,43.0,27.0,-100.00,East,90,2.0,3.0,52,0.00,,,0.00,0.000000,,2013-04-26 04:43:00,
2013-04-26 04:53:00,43.0,27.0,-100.00,East,90,2.0,3.0,52,0.00,,,0.00,0.000000,,2013-04-26 04:53:00,
2013-04-26 05:02:00,43.0,27.0,-100.00,East,90,2.0,3.0,52,0.00,,,0.00,0.000000,,2013-04-26 05:02:00,
2013-04-26 05:11:00,40.0,28.0,-100.00,East,94,2.0,3.0,63,0.00,,,0.00,0.000000,,2013-04-26 05:11:00,
2013-04-26 05:32:00,40.0,28.0,-100.00,East,94,2.0,3.0,63,0.00,,,0.00,0.000000,,2013-04-26 05:32:00,
2013-04-26 05:42:00,40.0,28.0,-100.00,East,94,2.0,3.0,63,0.00,,,0.00,0.000000,,2013-04-26 05:42:00,
2013-04-26 05:52:00,40.0,28.0,-100.00,East,94,2.0,3.0,63,0.00,,,0.00,0.000000,,2013-04-26 05:52:00,
2013-04-26 06:02:00,40.0,28.0,-100.00,East,94,2.0,3.0,63,0.00,,,0.00,0.000000,,2013-04-26 06:02:00,
2013-04-26 06:11:00,38.0,27.0,-100.00,East,98,1.0,3.0,64,0.00,,,-99.99,0.000000,,2013-04-26 06:11:00,
2013-04-26 06:32:00,38.0,27.0,-100.00,East,98,1.0,3.0,64,0.00,,,-99.99,0.000000,,2013-04-26 06:32:00,
2013-04-26 06:42:00,38.0,27.0,-100.00,East,98,1.0,3.0,64,0.00,,,-99.99,0.000000,,2013-04-26 06:42:00,
2013-04-26 06:52:00,38.0,27.0,-100.00,East,98,1.0,3.0,64,0.00,,,-99.99,0.000000,,2013-04-26 06:52:00,
2013-04-26 07:02:00,38.0,27.0,-100.00,East,98,1.0,3.0,64,0.00,,,-99.99,0.000000,,2013-04-26 07:02:00,
2013-04-26 07:11:00,36.0,29.0,-100.00,NW,307,0.0,4.0,76,0.00,,,0.00,0.000000,,2013-04-26 07:11:00,
2013-04-26 07:32:00,36.0,29.0,-100.00,NW,307,0.0,4.0,76,0.00,,,0.00,0.000000,,2013-04-26 07:32:00,
2013-04-26 07:42:00,36.0,29.0,-100.00,NW,307,0.0,4.0,76,0.00,,,0.00,0.000000,,2013-04-26 07:42:00,
2013-04-26 07:52:00,36.0,29.0,-100.00,NW,307,0.0,4.0,76,0.00,,,0.00,0.000000,,2013-04-26 07:52:00,
2013-04-26 08:03:00,36.0,29.0,-100.00,NW,307,0.0,4.0,76,0.00,,,0.00,0.000000,,2013-04-26 08:03:00,
2013-04-26 08:11:00,35.0,31.0,-100.00,NW,305,2.0,3.0,84,0.00,,,0.00,0.000000,,2013-04-26 08:11:00,
2013-04-26 08:32:00,35.0,31.0,-100.00,NW,305,2.0,3.0,84,0.00,,,0.00,0.000000,,2013-04-26 08:32:00,
2013-04-26 08:42:00,35.0,31.0,-100.00,NW,305,2.0,3.0,84,0.00,,,0.00,0.000000,,2013-04-26 08:42:00,
2013-04-26 08:52:00,35.0,31.0,-100.00,NW,305,2.0,3.0,84,0.00,,,0.00,0.000000,,2013-04-26 08:52:00,
2013-04-26 09:02:00,35.0,31.0,-100.00,NW,305,2.0,3.0,84,0.00,,,0.00,0.000000,,2013-04-26 09:02:00,
2013-04-26 09:11:00,35.0,30.0,-100.00,NW,319,2.0,4.0,83,0.00,,,0.00,0.000000,,2013-04-26 09:11:00,
2013-04-26 09:33:00,35.0,30.0,-100.00,NW,319,2.0,4.0,83,0.00,,,0.00,0.000000,,2013-04-26 09:33:00,
2013-04-26 09:43:00,35.0,30.0,-100.00,NW,319,2.0,4.0,83,0.00,,,0.00,0.000000,,2013-04-26 09:43:00,
2013-04-26 09:53:00,35.0,30.0,-100.00,NW,319,2.0,4.0,83,0.00,,,0.00,0.000000,,2013-04-26 09:53:00,
2013-04-26 10:03:00,35.0,30.0,-100.00,NW,319,2.0,4.0,83,0.00,,,0.00,0.000000,,2013-04-26 10:03:00,
2013-04-26 10:11:00,34.0,29.0,-100.00,ENE,65,2.0,5.0,81,0.00,,,0.00,0.000000,,2013-04-26 10:11:00,
2013-04-26 10:33:00,34.0,29.0,-100.00,ENE,65,2.0,5.0,81,0.00,,,0.00,0.000000,,2013-04-26 10:33:00,
2013-04-26 10:42:00,34.0,29.0,-100.00,ENE,65,2.0,5.0,81,0.00,,,0.00,0.000000,,2013-04-26 10:42:00,
2013-04-26 10:52:00,34.0,29.0,-100.00,ENE,65,2.0,5.0,81,0.00,,,0.00,0.000000,,2013-04-26 10:52:00,
2013-04-26 11:02:00,34.0,29.0,-100.00,ENE,65,2.0,5.0,81,0.00,,,0.00,0.000000,,2013-04-26 11:02:00,
2013-04-26 11:11:00,35.0,32.0,-100.00,WNW,294,0.0,4.0,88,0.00,,,0.00,21.000000,,2013-04-26 11:11:00,
2013-04-26 11:32:00,35.0,32.0,-100.00,WNW,294,0.0,4.0,88,0.00,,,0.00,21.000000,,2013-04-26 11:32:00,
2013-04-26 11:42:00,35.0,32.0,-100.00,WNW,294,0.0,4.0,88,0.00,,,0.00,21.000000,,2013-04-26 11:42:00,
2013-04-26 11:52:00,35.0,32.0,-100.00,WNW,294,0.0,4.0,88,0.00,,,0.00,21.000000,,2013-04-26 11:52:00,
2013-04-26 12:02:00,35.0,32.0,-100.00,WNW,294,0.0,4.0,88,0.00,,,0.00,21.000000,,2013-04-26 12:02:00,
2013-04-26 12:11:00,43.0,36.0,-100.00,SSW,192,0.0,3.0,76,0.00,,,-99.99,147.000000,,2013-04-26 12:11:00,
2013-04-26 12:32:00,43.0,36.0,-100.00,SSW,192,0.0,3.0,76,0.00,,,-99.99,147.000000,,2013-04-26 12:32:00,
2013-04-26 12:42:00,43.0,36.0,-100.00,SSW,192,0.0,3.0,76,0.00,,,-99.99,147.000000,,2013-04-26 12:42:00,
2013-04-26 12:52:00,43.0,36.0,-100.00,SSW,192,0.0,3.0,76,0.00,,,-99.99,147.000000,,2013-04-26 12:52:00,
2013-04-26 13:01:00,43.0,36.0,-100.00,SSW,192,0.0,3.0,76,0.00,,,-99.99,147.000000,,2013-04-26 13:01:00,
2013-04-26 13:11:00,52.0,34.0,-100.00,WSW,256,3.0,4.0,51,0.00,,,0.00,404.000000,,2013-04-26 13:11:00,
2013-04-26 13:32:00,52.0,34.0,-100.00,WSW,256,3.0,4.0,51,0.00,,,0.00,404.000000,,2013-04-26 13:32:00,
2013-04-26 13:42:00,52.0,34.0,-100.00,WSW,256,3.0,4.0,51,0.00,,,0.00,404.000000,,2013-04-26 13:42:00,
2013-04-26 13:52:00,52.0,34.0,-100.00,WSW,256,3.0,4.0,51,0.00,,,0.00,404.000000,,2013-04-26 13:52:00,
2013-04-26 14:02:00,52.0,34.0,-100.00,WSW,256,3.0,4.0,51,0.00,,,0.00,404.000000,,2013-04-26 14:02:00,
2013-04-26 14:11:00,56.0,34.0,-100.00,SE,132,4.0,6.0,44,0.00,,,0.00,683.000000,,2013-04-26 14:11:00,
2013-04-26 14:42:00,56.0,34.0,-100.00,SE,132,4.0,6.0,44,0.00,,,0.00,683.000000,,2013-04-26 14:42:00,
2013-04-26 14:52:00,56.0,34.0,-100.00,SE,132,4.0,6.0,44,0.00,,,0.00,683.000000,,2013-04-26 14:52:00,
2013-04-26 15:01:00,56.0,34.0,-100.00,SE,132,4.0,6.0,44,0.00,,,0.00,683.000000,,2013-04-26 15:01:00,
2013-04-26 15:11:00,58.0,32.0,-100.00,SSW,199,4.0,9.0,37,0.00,,,-99.99,917.000000,,2013-04-26 15:11:00,
2013-04-26 15:33:00,58.0,32.0,-100.00,SSW,199,4.0,9.0,37,0.00,,,-99.99,917.000000,,2013-04-26 15:33:00,
2013-04-26 15:43:00,58.0,32.0,-100.00,SSW,199,4.0,9.0,37,0.00,,,-99.99,917.000000,,2013-04-26 15:43:00,
2013-04-26 15:53:00,58.0,32.0,-100.00,SSW,199,4.0,9.0,37,0.00,,,-99.99,917.000000,,2013-04-26 15:53:00,
2013-04-26 16:03:00,58.0,32.0,-100.00,SSW,199,4.0,9.0,37,0.00,,,-99.99,917.000000,,2013-04-26 16:03:00,
2013-04-26 16:11:00,60.0,30.0,-100.00,East,93,3.0,9.0,32,0.00,,,0.00,1052.000000,,2013-04-26 16:11:00,
2013-04-26 16:33:00,60.0,30.0,-100.00,East,93,3.0,9.0,32,0.00,,,0.00,1052.000000,,2013-04-26 16:33:00,
2013-04-26 16:42:00,60.0,30.0,-100.00,East,93,3.0,9.0,32,0.00,,,0.00,1052.000000,,2013-04-26 16:42:00,
2013-04-26 16:53:00,60.0,30.0,-100.00,East,93,3.0,9.0,32,0.00,,,0.00,1052.000000,,2013-04-26 16:53:00,
2013-04-26 17:02:00,60.0,30.0,-100.00,East,93,3.0,9.0,32,0.00,,,0.00,1052.000000,,2013-04-26 17:02:00,
2013-04-26 17:11:00,63.0,34.0,-100.00,SSE,156,4.0,9.0,34,0.00,,,0.00,1111.000000,,2013-04-26 17:11:00,
2013-04-26 17:42:00,63.0,34.0,-100.00,SSE,156,4.0,9.0,34,0.00,,,0.00,1111.000000,,2013-04-26 17:42:00,
2013-04-26 17:52:00,63.0,34.0,-100.00,SSE,156,4.0,9.0,34,0.00,,,0.00,1111.000000,,2013-04-26 17:52:00,
2013-04-26 18:02:00,63.0,34.0,-100.00,SSE,156,4.0,9.0,34,0.00,,,0.00,1111.000000,,2013-04-26 18:02:00,
2013-04-26 18:11:00,64.0,30.0,-100.00,SE,137,4.0,8.0,28,0.00,,,0.00,1024.000000,,2013-04-26 18:11:00,
2013-04-26 18:33:00,64.0,30.0,-100.00,SE,137,4.0,8.0,28,0.00,,,0.00,1024.000000,,2013-04-26 18:33:00,
2013-04-26 18:42:00,64.0,30.0,-100.00,SE,137,4.0,8.0,28,0.00,,,0.00,1024.000000,,2013-04-26 18:42:00,
2013-04-26 18:52:00,64.0,30.0,-100.00,SE,137,4.0,8.0,28,0.00,,,0.00,1024.000000,,2013-04-26 18:52:00,
2013-04-26 19:02:00,64.0,30.0,-100.00,SE,137,4.0,8.0,28,0.00,,,0.00,1024.000000,,2013-04-26 19:02:00,
2013-04-26 19:11:00,65.0,32.0,-100.00,East,85,3.0,8.0,29,0.00,,,0.00,805.000000,,2013-04-26 19:11:00,
2013-04-26 19:32:00,65.0,32.0,-100.00,East,85,3.0,8.0,29,0.00,,,0.00,805.000000,,2013-04-26 19:32:00,
2013-04-26 19:42:00,65.0,32.0,-100.00,East,85,3.0,8.0,29,0.00,,,0.00,805.000000,,2013-04-26 19:42:00,
2013-04-26 19:52:00,65.0,32.0,-100.00,East,85,3.0,8.0,29,0.00,,,0.00,805.000000,,2013-04-26 19:52:00,
2013-04-26 20:02:00,65.0,32.0,-100.00,East,85,3.0,8.0,29,0.00,,,0.00,805.000000,,2013-04-26 20:02:00,
2013-04-26 20:11:00,65.0,30.0,-100.00,South,180,3.0,8.0,27,0.00,,,0.00,560.000000,,2013-04-26 20:11:00,
2013-04-26 20:42:00,65.0,30.0,-100.00,South,180,3.0,8.0,27,0.00,,,0.00,560.000000,,2013-04-26 20:42:00,
2013-04-26 20:52:00,65.0,30.0,-100.00,South,180,3.0,8.0,27,0.00,,,0.00,560.000000,,2013-04-26 20:52:00,
2013-04-26 21:02:00,65.0,30.0,-100.00,South,180,3.0,8.0,27,0.00,,,0.00,560.000000,,2013-04-26 21:02:00,
2013-04-26 21:11:00,63.0,29.0,-100.00,SW,225,3.0,7.0,27,0.00,,,0.00,376.000000,,2013-04-26 21:11:00,
2013-04-26 21:33:00,63.0,29.0,-100.00,SW,225,3.0,7.0,27,0.00,,,0.00,376.000000,,2013-04-26 21:33:00,
2013-04-26 21:42:00,63.0,29.0,-100.00,SW,225,3.0,7.0,27,0.00,,,0.00,376.000000,,2013-04-26 21:42:00,
2013-04-26 21:53:00,63.0,29.0,-100.00,SW,225,3.0,7.0,27,0.00,,,0.00,376.000000,,2013-04-26 21:53:00,
2013-04-26 22:03:00,63.0,29.0,-100.00,SW,225,3.0,7.0,27,0.00,,,0.00,376.000000,,2013-04-26 22:03:00,
2013-04-26 22:11:00,62.0,29.0,-100.00,WNW,285,3.0,8.0,28,0.00,,,0.00,240.000000,,2013-04-26 22:11:00,
2013-04-26 22:33:00,62.0,29.0,-100.00,WNW,285,3.0,8.0,28,0.00,,,0.00,240.000000,,2013-04-26 22:33:00,
2013-04-26 22:42:00,62.0,29.0,-100.00,WNW,285,3.0,8.0,28,0.00,,,0.00,240.000000,,2013-04-26 22:42:00,
2013-04-26 22:52:00,62.0,29.0,-100.00,WNW,285,3.0,8.0,28,0.00,,,0.00,240.000000,,2013-04-26 22:52:00,
2013-04-26 23:02:00,62.0,29.0,-100.00,WNW,285,3.0,8.0,28,0.00,,,0.00,240.000000,,2013-04-26 23:02:00,
2013-04-26 23:11:00,60.0,29.0,-100.00,SE,129,4.0,8.0,31,0.00,,,0.00,104.000000,,2013-04-26 23:11:00,
2013-04-26 23:32:00,60.0,29.0,-100.00,SE,129,4.0,8.0,31,0.00,,,0.00,104.000000,,2013-04-26 23:32:00,
2013-04-26 23:42:00,60.0,29.0,-100.00,SE,129,4.0,8.0,31,0.00,,,0.00,104.000000,,2013-04-26 23:42:00,
2013-04-26 23:52:00,60.0,29.0,-100.00,SE,129,4.0,8.0,31,0.00,,,0.00,104.000000,,2013-04-26 23:52:00,